Date,TemperatureHighF,TemperatureAvgF,TemperatureLowF,DewpointHighF,DewpointAvgF,DewpointLowF,HumidityHigh,HumidityAvg,HumidityLow,PressureMaxIn,PressureMinIn,WindSpeedMaxMPH,WindSpeedAvgMPH,GustSpeedMaxMPH,PrecipitationSumIn
2013-1-1,58,44,35,41,37,33,95,79,43,30.17,30.06,6,1,12,0.00
2013-1-2,64,45,34,41,36,31,91,72,36,30.12,30.00,4,1,7,0.00
2013-1-3,59,44,34,49,38,32,91,80,44,30.14,30.05,4,1,7,0.00
2013-1-4,62,47,37,45,39,34,93,76,43,30.16,30.07,5,1,7,0.02
2013-1-5,55,48,41,50,46,39,97,92,76,30.18,30.00,7,1,11,0.51
2013-1-6,52,46,39,49,44,38,98,94,81,30.09,29.96,2,0,6,0.13
2013-1-7,57,45,37,49,42,37,99,91,68,30.17,30.05,4,1,7,0.01
2013-1-8,64,49,40,50,45,40,98,88,60,30.12,30.00,5,1,6,0.01
2013-1-9,55,48,42,50,44,39,97,89,78,30.04,29.91,5,1,11,0.01
2013-1-10,52,43,35,42,37,33,97,80,50,30.10,29.96,9,2,17,0.02
2013-1-11,54,41,32,41,36,30,96,82,56,30.16,30.03,5,1,10,0.01
2013-1-12,51,42,34,39,35,30,93,77,48,30.15,30.03,5,1,9,0.00
2013-1-13,53,38,29,34,28,22,92,71,30,30.16,30.05,5,1,14,0.00
2013-1-14,51,40,29,33,26,21,81,60,32,30.28,30.11,6,1,8,0.00
2013-1-15,57,43,30,33,30,25,88,65,32,30.37,30.29,4,1,6,0.00
2013-1-16,62,44,32,39,34,30,92,70,34,30.32,30.13,3,0,6,0.00
2013-1-17,74,51,37,42,38,33,88,66,28,30.13,30.00,3,0,5,0.00
2013-1-18,72,52,40,42,37,34,82,62,26,30.09,30.00,3,0,5,0.00
2013-1-19,73,52,41,42,37,34,78,60,25,30.10,30.02,3,1,6,0.00
2013-1-20,74,53,40,41,36,32,75,57,25,30.09,29.97,5,1,7,0.00
2013-1-21,74,53,38,41,35,27,78,56,18,30.06,29.94,3,1,6,0.00
2013-1-22,69,52,40,44,35,30,69,55,23,29.99,29.89,4,0,8,0.00
2013-1-23,60,53,49,51,44,36,95,72,57,29.97,29.86,3,0,7,0.03
2013-1-24,58,53,50,55,52,49,98,95,85,30.07,29.94,2,0,4,0.13
2013-1-25,72,58,51,60,55,50,99,90,62,30.08,29.91,7,1,11,0.01
2013-1-26,61,51,40,53,45,38,99,81,49,30.00,29.89,7,1,13,0.00
2013-1-27,59,46,36,42,38,33,97,77,42,30.07,29.99,7,1,11,0.00
2013-1-28,60,47,35,44,39,34,95,78,45,30.19,30.07,6,1,14,0.00
2013-1-29,57,46,37,48,41,36,96,85,61,30.25,30.15,6,1,9,0.00
2013-1-30,65,49,39,46,42,38,98,80,47,30.26,30.15,5,1,6,0.00
2013-1-31,69,51,38,48,42,36,93,76,43,30.18,30.05,5,1,7,0.00
2013-2-1,70,50,41,52,45,40,97,84,47,30.14,30.02,7,1,11,0.00
2013-2-2,60,49,43,51,46,42,98,92,72,30.18,30.11,4,1,7,0.00
2013-2-3,58,48,41,49,45,40,98,90,66,30.16,30.03,6,1,10,0.00
2013-2-4,61,47,38,51,44,37,98,91,65,30.08,29.95,5,1,7,0.00
2013-2-5,55,47,40,48,44,39,98,90,76,30.06,29.97,6,1,8,0.00
2013-2-6,60,46,36,47,42,35,97,86,57,30.10,30.02,6,1,7,0.01
2013-2-7,56,46,37,48,41,36,96,84,51,30.09,29.92,9,1,11,0.01
2013-2-8,55,44,36,43,39,34,98,84,55,29.92,29.85,4,1,13,0.04
2013-2-9,57,43,32,45,37,31,95,82,50,30.01,29.90,6,1,8,0.00
2013-2-10,57,43,32,48,38,31,94,83,54,30.02,29.91,6,1,10,0.00
2013-2-11,58,45,35,46,39,33,95,80,49,30.15,29.97,5,1,8,0.00
2013-2-12,60,46,36,44,38,34,93,76,44,30.26,30.15,6,1,8,0.00
2013-2-13,64,48,36,47,41,35,95,79,45,30.24,30.11,5,1,7,0.00
2013-2-14,72,52,38,50,42,36,95,73,40,30.14,30.02,6,1,8,0.00
2013-2-15,77,58,43,46,41,35,85,60,22,30.14,30.07,6,1,8,0.00
2013-2-16,74,57,46,50,43,36,95,66,25,30.11,29.94,5,1,8,0.00
2013-2-17,59,48,42,49,45,41,98,89,66,29.98,29.87,5,1,10,0.00
2013-2-18,52,46,40,47,42,39,97,85,67,29.97,29.90,6,1,11,0.00
2013-2-19,49,43,33,47,40,33,97,90,75,29.90,29.68,8,0,18,0.31
2013-2-20,62,44,31,46,38,31,98,81,42,29.98,29.74,8,1,13,0.00
2013-2-21,62,47,35,45,36,33,97,72,36,30.09,29.97,8,1,17,0.00
2013-2-22,59,46,35,49,41,33,92,82,65,30.16,30.08,6,1,8,0.00
2013-2-23,62,50,39,44,40,33,94,71,35,30.16,30.04,11,2,15,0.00
2013-2-24,63,50,38,38,32,26,89,52,32,30.16,30.04,9,2,17,0.00
2013-2-25,62,47,35,48,39,31,94,74,42,30.18,30.05,6,1,7,0.00
2013-2-26,63,48,36,47,40,34,95,74,44,30.11,30.01,5,1,8,0.00
2013-2-27,67,50,36,49,40,33,93,72,33,30.27,30.11,5,1,9,0.00
2013-2-28,69,52,41,53,46,39,96,82,54,30.35,30.26,5,1,7,0.00
2013-3-1,78,58,45,54,49,44,98,77,42,30.33,30.10,7,1,9,0.00
2013-3-2,72,56,50,53,48,44,96,77,40,30.13,29.98,5,1,9,0.00
2013-3-3,60,52,49,52,49,46,96,89,74,30.02,29.95,6,1,9,0.00
2013-3-4,58,51,46,49,46,44,93,83,68,30.06,29.96,5,1,10,0.00
2013-3-5,54,49,43,45,44,41,96,81,67,30.00,29.84,11,3,20,0.22
2013-3-6,57,50,41,51,46,40,96,85,66,30.00,29.84,12,3,22,0.25
2013-3-7,59,47,39,48,43,38,96,85,52,29.91,29.76,9,1,13,0.23
2013-3-8,63,51,42,50,44,41,99,79,50,30.00,29.73,7,2,15,0.04
2013-3-9,68,52,42,49,43,39,90,73,35,30.21,30.00,7,1,12,0.00
2013-3-10,60,50,38,50,45,37,96,84,58,30.25,30.15,7,1,7,0.00
2013-3-11,70,52,39,50,43,31,96,77,24,30.17,30.00,6,1,11,0.00
2013-3-12,72,53,42,53,47,41,98,83,47,30.05,29.95,4,1,9,0.00
2013-3-13,77,56,44,55,50,44,98,82,44,30.05,29.96,6,1,11,0.00
2013-3-14,62,53,43,54,50,43,99,90,73,30.07,29.99,4,1,7,0.00
2013-3-15,70,55,42,53,46,40,94,75,44,30.02,29.94,6,1,9,0.00
2013-3-16,68,56,46,53,50,46,97,84,59,30.01,29.93,9,2,11,0.00
2013-3-17,68,53,41,51,45,41,98,79,40,30.04,29.93,6,1,9,0.00
2013-3-18,62,51,41,50,46,40,96,84,62,30.03,29.94,4,1,6,0.00
2013-3-19,70,55,44,53,47,42,95,77,40,30.05,29.96,6,1,11,0.11
2013-3-20,64,56,52,55,52,40,98,86,43,30.04,29.98,5,1,9,0.01
2013-3-21,69,55,44,51,45,39,92,71,34,30.02,29.88,9,2,15,0.00
2013-3-22,72,54,39,50,37,22,98,64,16,29.99,29.90,6,1,14,0.00
2013-3-23,68,52,38,49,40,31,89,68,26,30.03,29.93,6,1,8,0.00
2013-3-24,66,52,39,51,43,36,94,76,40,30.01,29.87,5,1,8,0.00
2013-3-25,63,51,43,49,45,42,97,83,51,29.95,29.84,5,1,7,0.00
2013-3-26,65,52,43,50,46,42,96,81,52,29.92,29.83,7,1,9,0.00
2013-3-27,66,54,44,55,50,43,97,86,64,29.94,29.87,7,2,11,0.00
2013-3-28,66,58,50,57,54,49,98,88,68,29.99,29.93,6,2,13,0.10
2013-3-29,69,56,45,56,51,45,98,86,65,30.00,29.94,4,1,11,0.00
2013-3-30,67,56,52,55,52,50,97,87,59,30.01,29.92,11,2,11,0.34
2013-3-31,65,57,52,57,54,51,98,88,66,29.99,29.92,13,3,18,0.00
2013-4-1,65,57,49,56,52,47,97,85,61,30.07,29.96,10,2,12,0.39
2013-4-2,72,55,44,55,50,44,98,84,48,30.09,29.98,8,1,9,0.00
2013-4-3,71,55,48,56,51,47,97,87,57,30.04,29.91,6,1,11,0.00
2013-4-4,61,55,50,57,53,49,98,94,84,30.03,29.95,5,1,10,0.23
2013-4-5,68,58,51,57,53,49,98,84,63,30.09,30.01,9,2,14,0.00
2013-4-6,65,56,47,57,52,46,97,87,72,30.11,30.03,9,2,13,0.00
2013-4-7,69,58,49,57,52,48,97,82,50,30.07,29.81,15,3,17,0.07
2013-4-8,69,56,48,51,41,34,96,62,29,29.91,29.72,16,4,21,0.14
2013-4-9,76,61,46,48,39,34,84,50,22,29.96,29.88,13,3,27,0.00
2013-4-10,76,60,46,55,48,43,92,69,32,30.07,29.93,5,1,8,0.00
2013-4-11,68,56,48,53,50,46,97,79,56,29.99,29.76,8,2,9,0.00
2013-4-12,66,53,44,52,48,43,96,84,59,29.84,29.75,6,1,10,0.00
2013-4-13,69,55,46,52,46,40,96,75,38,29.84,29.73,6,2,20,0.00
2013-4-14,71,54,40,47,44,39,95,72,35,29.84,29.75,10,2,20,0.00
2013-4-15,61,52,45,49,40,35,95,67,43,29.87,29.79,9,2,19,0.00
2013-4-16,70,52,36,45,36,30,94,61,24,30.03,29.86,10,2,14,0.00
2013-4-17,71,56,42,40,34,28,77,48,20,30.15,30.03,9,2,19,0.00
2013-4-18,72,54,41,50,42,36,91,68,40,30.17,30.07,7,2,9,0.00
2013-4-19,71,55,44,51,45,39,93,73,33,30.16,29.99,8,1,9,0.00
2013-4-20,75,57,45,53,49,44,96,77,37,30.01,29.87,7,1,10,0.00
2013-4-21,78,58,45,54,49,43,94,74,34,29.93,29.83,6,1,9,0.00
2013-4-22,67,56,48,53,49,44,95,80,48,29.89,29.80,7,2,11,0.00
2013-4-23,60,53,48,52,50,48,97,89,73,29.89,29.79,10,2,12,0.00
2013-4-24,62,54,49,52,49,47,95,86,68,29.88,29.76,10,1,14,0.00
2013-4-25,68,57,47,52,50,46,96,79,52,30.03,29.89,12,2,13,0.00
2013-4-26,69,54,44,53,49,43,97,82,55,30.14,30.04,6,1,9,0.00
2013-4-27,68,55,48,53,50,47,97,84,58,30.13,29.99,9,2,9,0.00
2013-4-28,67,55,47,55,50,46,98,86,60,29.99,29.81,6,1,7,0.00
2013-4-29,74,59,48,57,52,47,97,79,50,29.81,29.68,5,1,9,0.00
2013-4-30,69,57,47,55,51,46,97,81,57,29.76,29.69,5,1,9,0.00
2013-5-1,66,55,46,53,50,44,96,84,62,30.00,29.75,8,2,11,0.00
2013-5-2,82,63,49,56,51,45,94,69,31,30.04,29.98,6,1,8,0.00
2013-5-3,83,63,51,55,48,35,93,64,18,30.00,29.73,9,2,13,0.00
2013-5-4,62,54,47,54,50,45,94,87,76,29.72,29.58,8,2,15,0.00
2013-5-5,66,58,51,53,51,48,91,79,57,29.72,29.57,13,4,22,0.00
2013-5-6,65,59,53,55,53,51,91,80,69,29.88,29.72,8,2,13,0.00
2013-5-7,68,60,53,55,52,48,96,76,55,29.97,29.86,11,2,15,0.00
2013-5-8,72,58,50,54,51,46,96,80,41,30.05,29.96,10,2,11,0.00
2013-5-9,69,58,51,55,51,48,93,79,59,30.08,29.99,8,2,10,0.00
2013-5-10,70,58,49,55,52,47,94,82,57,30.10,30.01,8,2,11,0.00
2013-5-11,75,59,49,57,53,48,98,83,51,30.06,29.97,10,2,11,0.00
2013-5-12,73,59,48,58,54,48,98,83,57,30.04,29.93,5,1,10,0.00
2013-5-13,76,60,51,58,53,50,97,80,44,30.01,29.87,6,2,9,0.00
2013-5-14,66,58,51,54,52,49,94,81,64,29.96,29.88,8,2,13,0.00
2013-5-15,74,57,44,53,48,43,96,74,41,30.00,29.92,9,1,14,0.00
2013-5-16,69,57,48,58,52,46,93,84,66,29.97,29.88,9,2,12,0.00
2013-5-17,75,59,45,52,48,43,95,69,38,30.00,29.91,6,2,15,0.00
2013-5-18,72,58,43,54,48,41,92,73,47,30.06,29.99,7,1,10,0.00
2013-5-19,77,59,46,56,51,44,95,76,46,30.03,29.87,5,1,10,0.00
2013-5-20,77,61,47,57,51,44,93,73,37,29.91,29.82,6,2,9,0.00
2013-5-21,76,59,50,54,48,36,95,70,24,29.92,29.84,15,3,26,0.00
2013-5-22,72,56,41,44,36,19,89,55,14,29.91,29.81,9,2,16,0.00
2013-5-23,68,55,40,48,42,37,90,66,39,29.93,29.86,8,2,14,0.00
2013-5-24,72,55,41,49,44,39,93,69,32,29.94,29.85,6,2,11,0.00
2013-5-25,70,55,42,50,45,39,91,71,41,29.99,29.91,7,2,11,0.00
2013-5-26,70,58,46,56,51,44,91,79,60,30.05,29.96,7,2,9,0.00
2013-5-27,67,58,47,57,52,46,94,82,67,30.05,29.93,5,1,8,0.00
2013-5-28,78,62,54,60,56,51,96,81,49,29.93,29.79,6,2,10,0.00
2013-5-29,79,62,50,58,52,46,94,71,41,29.88,29.78,7,2,13,0.00
2013-5-30,72,58,44,53,49,42,93,74,45,29.91,29.84,7,2,8,0.00
2013-5-31,74,59,45,55,50,44,94,74,42,29.91,29.81,6,1,9,0.00
2013-6-1,75,60,48,56,52,47,95,76,43,29.86,29.69,6,1,10,0.00
2013-6-2,64,57,49,55,52,48,94,84,69,29.71,29.65,10,2,13,0.00
2013-6-3,64,57,52,53,51,49,94,82,65,29.80,29.68,10,2,15,0.00
2013-6-4,66,57,48,55,52,47,95,84,68,29.89,29.78,11,2,16,0.00
2013-6-5,64,56,49,54,52,48,95,85,70,29.92,29.86,8,2,13,0.00
2013-6-6,64,57,53,54,52,51,95,84,71,29.88,29.81,9,2,12,0.00
2013-6-7,66,57,52,56,53,51,97,88,69,29.83,29.68,7,1,9,0.00
2013-6-8,63,57,51,56,54,50,97,90,78,29.78,29.69,11,2,14,0.00
2013-6-9,63,59,56,58,56,54,97,89,80,29.83,29.76,7,2,11,0.01
2013-6-10,68,62,57,55,54,52,87,76,61,29.88,29.78,10,2,18,0.00
2013-6-11,72,61,54,58,54,52,93,80,58,29.89,29.81,7,2,9,0.00
2013-6-12,72,60,49,57,52,40,96,79,38,29.94,29.83,7,1,11,0.00
2013-6-13,77,59,44,55,50,42,93,73,40,30.01,29.90,6,1,9,0.00
2013-6-14,79,62,47,57,52,46,95,73,44,29.91,29.71,7,2,10,0.00
2013-6-15,65,56,51,54,52,49,95,84,66,29.93,29.77,9,2,14,0.00
2013-6-16,71,60,52,56,53,50,91,79,53,30.00,29.93,8,1,9,0.00
2013-6-17,83,64,49,58,53,48,96,72,39,30.01,29.91,9,2,12,0.00
2013-6-18,76,62,50,53,50,45,94,68,36,29.95,29.89,11,2,23,0.00
2013-6-19,80,62,46,53,48,43,89,63,33,29.96,29.87,13,2,16,0.00
2013-6-20,78,62,46,54,48,43,90,65,31,29.93,29.84,8,2,18,0.00
2013-6-21,74,60,47,56,50,44,91,72,45,29.90,29.82,6,2,9,0.00
2013-6-22,74,60,48,57,53,46,95,78,48,29.86,29.77,10,2,11,0.00
2013-6-23,64,59,53,59,56,51,97,90,77,29.82,29.75,6,1,8,0.00
2013-6-24,60,59,58,59,58,57,98,97,95,29.85,29.72,4,1,7,0.03
2013-6-25,67,61,58,64,60,58,98,96,88,29.93,29.84,5,1,7,0.04
2013-6-26,87,69,60,68,62,58,98,81,46,29.95,29.85,10,2,13,0.00
2013-6-27,82,66,57,64,59,56,97,79,51,29.96,29.90,5,1,9,0.00
2013-6-28,83,65,56,61,58,54,95,79,46,29.92,29.81,6,2,11,0.00
2013-6-29,77,64,54,61,57,53,97,79,55,29.84,29.73,7,1,9,0.00
2013-6-30,77,64,53,60,57,52,96,80,55,29.78,29.68,6,1,9,0.00
2013-7-1,76,63,54,61,57,53,97,82,55,29.80,29.72,7,2,13,0.00
2013-7-2,77,64,56,61,58,55,97,82,57,29.86,29.76,8,2,11,0.00
2013-7-3,73,63,58,61,58,56,97,86,66,29.85,29.70,6,2,9,0.00
2013-7-4,68,62,58,61,58,57,97,88,73,29.72,29.66,8,2,11,0.00
2013-7-5,71,61,55,58,55,53,96,82,62,29.75,29.67,7,2,11,0.00
2013-7-6,64,58,55,56,54,52,94,86,73,29.76,29.70,9,2,12,0.00
2013-7-7,64,58,55,56,54,52,92,84,73,29.80,29.73,8,2,12,0.00
2013-7-8,66,58,55,56,54,53,93,86,70,29.89,29.80,9,2,10,0.00
2013-7-9,76,60,52,59,55,50,96,85,51,29.93,29.86,8,2,15,0.00
2013-7-10,67,59,55,58,56,54,96,87,73,29.92,29.84,7,2,12,0.00
2013-7-11,66,59,55,56,54,53,96,85,69,29.88,29.83,9,2,11,0.00
2013-7-12,68,58,54,57,54,52,93,85,66,29.87,29.81,8,2,11,0.00
2013-7-13,68,58,52,57,54,51,96,87,69,29.90,29.83,8,2,11,0.00
2013-7-14,68,58,52,57,54,51,97,87,66,29.93,29.82,9,2,12,0.00
2013-7-15,65,58,53,57,54,52,96,87,74,29.86,29.78,10,2,12,0.00
2013-7-16,69,60,55,58,55,53,96,84,66,29.94,29.80,8,2,13,0.00
2013-7-17,74,62,52,59,56,51,95,81,59,30.00,29.93,7,2,9,0.00
2013-7-18,68,59,53,58,55,52,96,87,70,29.98,29.87,8,2,11,0.00
2013-7-19,68,59,54,58,55,53,97,87,68,29.88,29.77,6,2,10,0.00
2013-7-20,65,57,54,57,54,53,97,90,74,29.79,29.72,8,2,10,0.00
2013-7-21,71,60,54,59,55,53,95,85,65,29.83,29.71,7,1,9,0.00
2013-7-22,71,63,57,61,58,55,94,85,71,29.88,29.80,7,1,10,0.00
2013-7-23,72,62,57,61,58,56,97,85,66,29.93,29.87,6,2,10,0.00
2013-7-24,70,60,56,59,57,55,98,89,69,29.91,29.83,8,2,10,0.00
2013-7-25,68,59,55,58,56,54,97,88,71,29.96,29.86,7,2,9,0.00
2013-7-26,66,59,55,58,56,54,96,89,74,30.02,29.95,8,2,11,0.00
2013-7-27,65,59,55,57,56,54,97,89,77,29.96,29.82,8,2,13,0.00
2013-7-28,64,58,55,57,55,54,97,89,77,29.83,29.78,7,2,11,0.00
2013-7-29,66,60,57,57,55,53,89,82,72,29.95,29.80,11,2,14,0.00
2013-7-30,66,60,56,57,54,53,88,81,70,30.03,29.95,8,2,12,0.00
2013-7-31,70,60,53,57,55,52,93,82,65,30.02,29.93,7,2,12,0.00
2013-8-1,75,61,50,57,54,49,97,80,53,30.00,29.87,5,1,9,0.00
2013-8-2,69,58,49,57,53,47,95,85,65,29.92,29.83,7,2,10,0.00
2013-8-3,64,57,54,56,54,52,95,88,74,29.92,29.86,10,1,11,0.00
2013-8-4,67,58,54,57,54,53,96,88,69,29.94,29.88,7,2,11,0.00
2013-8-5,70,59,54,58,54,52,96,86,64,29.95,29.86,8,2,12,0.00
2013-8-6,66,59,55,57,55,53,94,87,72,29.97,29.89,12,2,13,0.00
2013-8-7,70,62,56,58,56,54,94,83,66,30.03,29.93,9,2,12,0.00
2013-8-8,68,60,56,59,56,54,96,86,70,29.96,29.85,10,2,13,0.00
2013-8-9,71,62,56,60,56,53,93,83,68,29.91,29.84,9,2,11,0.00
2013-8-10,74,63,58,60,58,56,93,85,62,29.95,29.90,10,2,14,0.00
2013-8-11,60,58,56,57,56,55,96,94,91,29.94,29.92,2,0,4,0.00
2013-8-12,71,60,54,60,56,53,97,87,66,29.92,29.86,12,2,12,0.00
2013-8-13,71,61,52,59,56,51,98,84,64,29.91,29.83,11,2,11,0.00
2013-8-14,75,62,49,61,56,48,97,83,54,29.91,29.80,8,1,8,0.00
2013-8-15,84,63,54,65,58,53,97,86,49,29.87,29.80,10,1,10,0.00
2013-8-16,80,65,55,66,60,54,98,84,60,29.89,29.82,12,2,12,0.00
2013-8-17,72,62,56,62,58,54,97,88,68,29.92,29.80,11,1,11,0.00
2013-8-18,71,61,56,61,58,55,97,89,70,29.82,29.71,9,1,9,0.00
2013-8-19,68,61,56,60,57,55,97,88,72,29.85,29.75,12,2,12,0.00
2013-8-20,66,59,56,59,56,55,97,91,75,29.85,29.78,13,1,13,0.00
2013-8-21,69,62,56,58,56,54,93,82,67,29.86,29.78,12,2,12,0.00
2013-8-22,76,63,54,59,56,52,94,79,54,29.89,29.78,12,2,12,0.00
2013-8-23,75,62,54,60,56,52,94,83,56,29.84,29.72,8,1,8,0.00
2013-8-24,75,63,54,62,58,53,96,84,63,29.82,29.73,11,1,11,0.00
2013-8-25,77,65,56,64,59,55,96,84,62,29.86,29.80,14,2,14,0.00
2013-8-26,78,66,58,62,59,55,95,81,55,29.91,29.78,10,1,10,0.00
2013-8-27,76,63,53,61,56,50,94,79,52,29.82,29.71,8,1,8,0.00
2013-8-28,81,65,53,63,58,52,97,82,51,29.86,29.76,11,1,11,0.00
2013-8-29,70,62,58,62,60,57,97,91,74,29.95,29.86,7,1,7,0.00
2013-8-30,82,67,56,64,60,54,96,80,51,29.94,29.80,8,1,8,0.00
2013-8-31,78,64,57,62,58,55,97,83,53,29.88,29.78,8,1,8,0.00
2013-9-1,83,67,58,62,59,54,97,78,37,29.85,29.76,9,1,9,0.00
2013-9-2,84,69,63,65,61,59,90,78,48,29.86,29.76,8,1,8,0.00
2013-9-3,84,68,57,63,58,53,96,74,36,29.90,29.80,10,1,10,0.00
2013-9-4,82,64,54,61,56,52,94,79,44,29.94,29.85,8,1,8,0.00
2013-9-6,62,61,60,56,55,52,82,80,74,29.86,29.75,3,0,4,0.00
2013-9-7,75,63,55,61,57,51,96,80,56,29.79,29.74,8,1,8,0.00
2013-9-8,70,60,55,61,57,54,97,90,72,29.80,29.70,8,1,8,0.00
2013-9-9,69,60,55,60,57,54,98,91,71,29.72,29.65,7,2,7,0.00
2013-9-10,65,60,56,60,58,56,98,92,81,29.83,29.68,7,1,8,0.00
2013-9-11,68,62,55,60,58,54,94,85,73,29.92,29.83,11,1,11,0.00
2013-9-12,76,61,55,63,57,53,95,88,64,29.89,29.78,11,1,11,0.00
2013-9-13,73,59,56,61,57,54,97,93,64,29.82,29.67,5,0,6,0.00
2013-9-14,74,62,54,60,56,53,97,85,57,29.74,29.63,7,1,7,0.00
2013-9-15,76,62,51,62,56,50,97,83,59,29.78,29.68,7,1,7,0.00
2013-9-16,77,64,53,62,57,52,96,82,59,29.80,29.68,8,1,8,0.00
2013-9-17,77,62,52,59,54,49,95,76,40,29.82,29.75,21,2,21,0.00
2013-9-18,76,60,49,60,53,47,96,79,53,29.82,29.70,8,1,9,0.00
2013-9-19,91,64,48,57,50,40,92,68,19,29.77,29.63,11,1,11,0.00
2013-9-20,70,58,49,62,54,47,97,88,70,29.79,29.68,10,1,10,0.00
2013-9-21,65,60,52,61,58,52,98,95,82,29.83,29.74,14,2,14,0.12
2013-9-22,70,58,48,60,53,47,99,84,54,29.90,29.82,14,1,14,0.01
2013-9-23,82,64,50,62,54,49,95,73,44,29.92,29.80,9,2,9,0.00
2013-9-24,80,67,54,60,54,49,95,67,38,29.90,29.80,22,3,22,0.00
2013-9-25,72,60,48,53,47,42,92,66,37,29.86,29.74,19,2,19,0.00
2013-9-26,76,58,44,54,46,37,95,70,24,29.89,29.74,6,1,7,0.00
2013-9-27,78,57,46,54,46,40,81,68,32,29.99,29.88,7,1,7,0.00
2013-9-28,82,62,47,55,44,35,83,58,20,29.99,29.88,11,1,11,0.00
2013-9-29,81,62,50,61,53,46,94,74,40,30.01,29.92,6,1,8,0.00
2013-9-30,71,58,53,61,56,52,96,90,68,29.99,29.85,3,0,3,0.00
2013-10-1,72,60,50,58,52,47,96,78,51,29.93,29.82,9,1,9,0.00
2013-10-2,73,56,47,56,50,45,95,82,46,29.92,29.83,7,1,7,0.00
2013-10-3,76,58,44,54,42,33,95,63,23,29.96,29.83,14,1,14,0.00
2013-10-4,76,53,45,48,40,35,78,63,24,29.94,29.84,8,1,8,0.00
2013-10-5,87,76,58,43,34,24,46,24,10,30.07,29.96,9,2,9,0.00
2013-10-6,85,66,51,42,36,29,53,36,15,30.00,29.90,7,1,9,0.00
2013-10-7,73,59,50,56,43,33,95,60,27,29.90,29.79,12,1,12,0.00
2013-10-8,63,53,46,54,50,44,95,87,70,29.83,29.65,11,1,11,0.00
2013-10-9,64,52,47,51,48,44,94,85,57,29.68,29.55,8,1,9,0.00
2013-10-10,59,52,44,52,48,42,94,86,72,29.93,29.68,9,1,9,0.00
2013-10-11,61,52,49,52,48,46,93,89,73,30.00,29.91,8,0,8,0.00
2013-10-12,60,52,45,53,49,44,97,89,75,29.93,29.83,11,1,11,0.00
2013-10-13,65,52,43,54,48,42,97,89,65,29.97,29.85,7,1,7,0.00
2013-10-14,80,59,44,53,45,41,96,65,27,30.00,29.86,10,1,10,0.00
2013-10-15,76,56,47,49,40,37,69,57,29,29.92,29.86,4,1,4,0.00
2013-10-16,81,64,50,45,39,34,63,43,20,29.96,29.88,7,1,7,0.00
2013-10-17,72,58,48,54,43,34,91,61,31,29.97,29.85,5,1,6,0.00
2013-10-18,76,52,46,54,40,36,95,64,34,29.95,29.87,11,0,11,0.00
2013-10-19,71,54,42,55,48,40,97,84,40,29.95,29.90,13,1,13,0.00
2013-10-20,65,52,44,53,48,43,98,88,57,29.95,29.82,6,1,6,0.00
2013-10-21,65,52,45,54,49,44,98,89,59,29.92,29.83,9,1,9,0.00
2013-10-22,61,51,45,53,48,44,98,91,72,29.93,29.86,8,1,8,0.00
2013-10-23,56,51,46,53,50,45,98,94,85,29.89,29.84,6,1,6,0.00
2013-10-24,58,51,47,52,49,46,98,92,80,30.02,29.88,6,0,6,0.00
2013-10-25,66,56,43,54,50,42,98,81,62,30.07,29.97,6,1,6,0.00
2013-10-26,66,48,44,54,46,42,97,94,61,30.04,29.92,9,0,9,0.00
2013-10-27,61,53,46,54,49,46,98,90,72,29.95,29.65,12,2,12,0.00
2013-10-28,64,56,51,53,49,45,94,79,53,29.78,29.61,10,1,14,0.00
2013-10-29,62,53,45,54,50,44,98,89,63,29.96,29.78,7,1,8,0.11
2013-10-30,68,53,42,52,46,41,97,81,49,30.05,29.95,8,1,8,0.00
2013-10-31,72,57,44,53,47,41,94,73,43,30.08,29.94,8,1,8,0.00
2013-11-1,77,57,46,53,46,41,91,70,31,30.02,29.91,6,1,6,0.00
2013-11-2,66,52,43,54,44,37,94,76,49,29.92,29.82,6,0,6,0.00
2013-11-3,69,53,41,51,38,28,98,64,23,29.93,29.80,16,1,16,0.00
2013-11-4,69,53,39,41,34,30,86,53,25,29.95,29.80,21,1,21,0.00
2013-11-5,67,53,40,52,40,35,90,64,33,30.12,29.95,7,1,7,0.00
2013-11-6,48,48,48,37,37,36,66,65,65,30.11,30.10,2,0,2,0.00
2013-11-7,53,49,0,50,46,-2,92,89,80,30.08,29.98,2,0,2,0.00
2013-11-8,69,56,43,54,47,39,95,74,51,30.06,29.91,6,1,6,0.00
2013-11-9,68,54,45,54,48,42,94,81,39,30.04,29.95,11,1,11,0.00
2013-11-10,62,51,46,53,48,45,95,90,70,30.11,30.01,8,1,11,0.00
2013-11-11,68,54,44,53,48,43,96,81,45,30.15,30.05,7,0,7,0.00
2013-11-12,73,59,49,55,51,45,92,76,45,30.23,30.12,8,1,8,0.00
2013-11-13,70,56,46,55,49,42,96,80,51,30.23,30.07,6,1,6,0.00
2013-11-14,57,49,45,53,48,44,98,96,86,30.10,29.89,6,0,6,0.00
2013-11-15,62,49,40,52,45,40,98,87,59,29.89,29.71,9,1,9,0.00
2013-11-16,63,50,39,50,45,38,96,83,56,29.93,29.78,8,1,8,0.00
2013-11-17,62,54,44,52,48,42,95,81,65,30.09,29.93,5,1,9,0.00
2013-11-18,59,51,45,50,47,43,94,86,71,30.14,30.06,12,1,12,0.00
2013-11-19,62,54,46,54,50,44,97,88,70,30.10,29.96,7,0,7,0.27
2013-11-20,57,54,48,56,53,47,98,98,97,29.96,29.84,3,0,4,0.29
2013-11-21,62,53,46,52,43,31,99,72,39,29.92,29.85,7,1,12,0.01
2013-11-22,63,49,42,40,35,27,82,61,29,30.00,29.89,6,1,6,0.00
2013-11-23,63,46,41,53,39,35,94,77,47,30.09,29.94,9,1,9,0.00
2013-11-24,65,46,39,50,41,36,93,83,49,30.23,30.09,7,0,7,0.00
2013-11-25,70,53,40,48,42,38,95,71,36,30.29,30.20,5,1,7,0.00
2013-11-26,72,53,44,48,44,40,88,72,35,30.22,30.00,8,0,8,0.00
2013-11-27,67,54,45,48,45,41,89,73,43,30.00,29.82,9,1,9,0.00
2013-11-28,67,54,46,48,44,42,87,72,43,30.06,29.83,7,1,7,0.00
2013-11-29,74,54,43,53,48,40,97,82,38,30.20,30.06,5,1,8,0.00
2013-11-30,67,52,39,54,46,37,97,82,57,30.24,30.15,7,1,7,0.00
2013-12-1,73,59,42,52,46,40,97,67,37,30.30,30.17,5,1,7,0.00
2013-12-2,65,52,43,52,46,40,95,82,52,30.20,29.97,10,1,10,0.00
2013-12-3,57,48,35,50,40,32,96,76,47,29.97,29.82,19,1,19,0.00
2013-12-4,53,40,30,35,30,26,91,68,38,30.06,29.91,13,1,13,0.00
2013-12-5,52,38,28,36,28,22,85,68,34,30.16,30.05,9,1,9,0.00
2013-12-6,54,44,29,50,36,26,96,74,54,30.19,29.94,19,2,19,0.00
2013-12-7,52,42,31,50,35,27,96,79,41,30.23,29.89,20,1,20,0.00
2013-12-8,50,37,28,34,28,24,94,74,42,30.28,30.16,5,1,6,0.00
2013-12-9,57,39,26,31,25,19,86,62,23,30.36,30.27,9,1,9,0.00
2013-12-10,62,44,30,32,27,21,80,57,23,30.35,30.14,8,1,8,0.00
2013-12-11,65,42,35,35,30,28,76,65,25,30.18,30.11,4,1,6,0.00
2013-12-12,61,45,35,41,33,27,78,64,28,30.23,30.14,7,1,7,0.00
2013-12-13,59,46,33,45,38,30,88,74,53,30.30,30.20,4,1,5,0.00
2013-12-14,70,49,37,43,38,33,88,68,34,30.33,30.24,6,1,6,0.00
2013-12-15,72,53,39,45,37,31,77,56,28,30.30,30.16,7,0,7,0.00
2013-12-16,79,58,45,40,35,31,66,45,18,30.17,30.05,6,1,6,0.00
2013-12-17,76,57,46,46,38,31,76,51,23,30.11,29.98,6,0,6,0.00
2013-12-18,53,50,44,49,46,41,96,85,70,30.00,29.78,8,1,8,0.00
2013-12-19,61,51,38,45,39,33,97,66,38,29.90,29.71,11,1,17,0.00
2013-12-20,59,45,34,42,30,25,78,57,39,29.98,29.89,8,1,8,0.00
2013-12-21,62,48,37,45,36,26,90,63,44,30.06,29.93,6,1,6,0.00
2013-12-22,62,48,39,52,43,37,96,86,51,30.27,30.06,8,1,8,0.00
2013-12-23,67,50,40,48,42,38,95,76,42,30.35,30.27,7,1,7,0.00
2013-12-24,72,53,42,44,40,34,83,63,33,30.29,30.14,7,1,7,0.00
2013-12-25,76,55,42,42,37,32,71,55,26,30.23,30.13,5,1,5,0.00
2013-12-26,46,45,43,38,37,35,74,72,70,30.19,30.17,3,0,3,0.00
2013-12-27,72,53,43,42,34,30,68,51,22,30.17,30.06,4,0,6,0.00
2013-12-28,66,52,40,48,38,30,73,59,30,30.09,29.97,5,1,6,0.00
2013-12-29,72,58,38,36,32,27,71,41,20,30.14,30.04,6,1,7,0.00
2013-12-30,67,50,40,40,32,27,67,51,24,30.23,30.14,7,1,7,0.00
2013-12-31,65,49,37,47,36,26,78,62,33,30.24,30.09,6,0,6,0.00
2014-1-1,68,46,38,50,35,31,81,68,27,30.17,30.06,4,0,5,0.00
2014-1-2,70,54,42,49,38,33,71,56,28,30.12,30.00,5,1,6,0.00